Showing default

HIMAWARI 9, 41836

Orbit data source: Space-Track

HIMAWARI 9, 41836 is a payload satellite owned by JMA (JP) in GEO that was launched on Wed, 02 Nov 2016 UTC via an H-IIA 202 launch vehicle from the Tanegashima Space Center (TNSTA). Payload-class satellites include a variety of spacecraft equipped with specific instruments for various scientific and technological missions. These include communications satellites like Starlink; space stations such as the ISS; scientific satellites like the Hubble; Earth observation satellites from companies like Planet Labs, Umbra, and HawkEye 360; GPS; miniature CubeSats for education and research; and military/defense satellites.

Not visible in the next 10 days
Identifier
41836, 2016-064A
Orbit
GEO
Country
Flag of JPJP / JPN
Related business
Manufacturer
MELCO
Mission
Operational Civil Weather
Bus & Motor
DS-2000, R-4D
Mass
3,500 kg wet, 1,300 kg dry
Launch date (UTC)
2016-11-02 (9 years ago)
Launch vehicle
H-IIA 202
Launch site
Tanegashima Space Center (TNSTA)
Object type
Payload
Rocket body
Debris
Shape & HBR
Box + 1 Pan + 1 Rod, 15.0 m
Radar Cross Section
63.551 m², Large (>1 m²)

Expand to show TLE details & history
Last TLE update: 1 day ago

TLE from 1 day ago
0 HIMAWARI 9
1 41836U 16064A   25312.84461528 -.00000273  00000-0  00000+0 0  9992
2 41836   0.0407  94.1048 0001634 137.8324 261.1925  1.00275391 33003
Epoch: 2025-11-08T20:16Z
TLE epoch observation values (Epoch: 2025-11-08T20:16:14.760Z)
Latitude
0.00419°
Longitude
140.75485°
Altitude
35,786.137 km
Speed
3.075 km/s
True Right ascension
08h 52m 20s
True Declination
0° 00' 15"
Sunlit
Object was in daylight at epoch
Visualization orbit readout
Latitude
Unknown
Longitude
Unknown
Altitude
Unknown
Speed
Unknown
Apparent Right ascension
Unknown
Apparent Declination
Unknown
Sunlit
N/A
Visualization observer readout
Local Sidereal Time
03:08:50
Azimuth
Unknown
Elevation
Unknown
Doppler factor
Unknown
Orbital elements
Apogee altitude
35,793.544 km
Perigee altitude
35,779.765 km
Semi-major axis
42,164.792 km
Eccentricity
0.00016
Inclination
0.0407°
RAAN
94.1048°
Arg. of periapsis
137.8324°
True anomaly
261.174°
Mean anomaly
261.1925°
Eccentric anomaly
261.18325°
Mean motion
0.25068 °/min
Orbital period
1,436.1 mins
BSTAR
0
Loading maneuver chart data...
Computing Atmospheric mass density...
Loading historical data...
Loading historical data...
Loading historical data...
Loading historical data...
Loading historical data...
Loading historical data...
Loading historical data...
Other satellites on launch #64 in the year 2016 (2016-11-02 UTC)

Documentation

Showing up to 5 results
|